Location: Be?chatów
(51.3665°N, 19.3745°E)
Time: 07:42:09
(UTC+00:00)

Cosmos 2100 Rocket - Pass Details

Date: 19 May 2025
Orbit: 954 x 1000 km, 82.9° (Epoch: 16 June)

Event Time Altitude Azimuth Distance (km) Brightness Sun altitude
Rises 22:41:01 0° 350° (N) 3,722 8.6 -18.7°
Reaches altitude 10° 22:43:35 10° 352° (N) 2,763 7.6 -18.6°
Maximum altitude 22:49:55 75° 78° (ENE) 1,021 4.1 -18.6°
Enters shadow 22:53:28 28° 159° (SSE) 1,758 4.8 -18.6°
